Grand Etang, Nova Scotia

1:11 PM ADT on April 21, 2018 (GMT -0300)
Grand Etang

Weather History for CWZQ - December, 2013

Change the Weather History Date:

Thursday, December 19, 2013

  Actual Average Record
Temperature  
Mean Temperature -3 °F -  
Max Temperature 27 °F - - ()
Min Temperature -33 °F - - ()
Degree Days  
Heating Degree Days 68    
Moisture  
Dew Point 18 °F    
Average Humidity 80    
Maximum Humidity 96    
Minimum Humidity 53    
Precipitation  
Precipitation 0.00 in - - ()
Sea Level Pressure  
Sea Level Pressure 29.77 in    
Wind  
Wind Speed 29 mph ()    
Max Wind Speed 43 mph    
Max Gust Speed 55 mph    
Visibility 4.5 miles    
Events      
T = Trace of Precipitation, MM = Missing Value Source: Averaged Metar Reports

Daily Weather History Graph

Daily Weather History Graph

Search for Another Location

Airport or City:

Astronomy

Dec. 19, 2013 Rise Set
Actual Time 7:44 AM AST 4:18 PM AST
Civil Twilight 7:09 AM AST 4:53 PM AST
Nautical Twilight 6:30 AM AST 5:32 PM AST
Astronomical Twilight 5:53 AM AST 6:09 PM AST
Moon 6:47 PM AST (12/19) 8:53 AM AST (12/19)
Length of Visible Light 9h 44m
Length of Day
8h 34m
Waning Gibbous, 95% of the Moon is Illuminated
Dec 19
Waning Gibbous
Dec 25
Last Quarter
Jan 1
New
Jan 7
First Quarter
Jan 16
Full

Hourly Weather History & Observations

Time (AST) Temp. Windchill Dew Point Humidity Pressure Visibility Wind Dir Wind Speed Gust Speed Precip Events Conditions
12:00 AM 29.1 °F 11.8 °F 26.8 °F 91% 29.34 in - NW 40.3 mph 49.5 mph N/A   Unknown
12:20 AM 29.3 °F 11.8 °F 25.9 °F 87% - - NW 41.4 mph 55.2 mph N/A   Unknown
12:40 AM 29.1 °F 12.2 °F 26.2 °F 89% - - NW 38.0 mph 46.0 mph N/A   Unknown
1:00 AM 28.8 °F 11.5 °F 24.8 °F 85% 29.42 in - NW 39.1 mph 50.6 mph N/A   Unknown
1:20 AM 29.1 °F 11.4 °F 24.8 °F 84% - - NW 42.6 mph 54.1 mph N/A   Unknown
1:40 AM 28.2 °F 10.5 °F 24.1 °F 84% - - NW 40.3 mph 49.5 mph N/A   Unknown
2:00 AM -24 °F - -31 °F 54% 29.82 in 5 mi NW 4.6 mph - -   Light Haze
2:00 AM 28.6 °F 11.6 °F 22.8 °F 79% 29.52 in - WNW 36.8 mph 48.3 mph N/A   Unknown
2:20 AM 27.9 °F 9.8 °F 22.8 °F 81% - - NW 41.4 mph 50.6 mph N/A   Unknown
2:40 AM 28.2 °F 11.6 °F 22.6 °F 80% - - NW 34.5 mph 44.9 mph N/A   Unknown
3:00 AM 28.2 °F 11.1 °F 21.7 °F 77% 29.57 in - NW 36.8 mph 44.9 mph N/A   Unknown
3:20 AM 28.4 °F 12.0 °F 22.3 °F 78% - - NW 33.4 mph 41.4 mph N/A   Unknown
3:40 AM 28.2 °F 11.6 °F 21.7 °F 77% - - NW 34.5 mph 42.6 mph N/A   Unknown
4:00 AM 28.0 °F 11.8 °F 25.7 °F 91% 29.60 in - WNW 32.2 mph 39.1 mph N/A   Unknown
4:20 AM 26.2 °F 9.1 °F 25.2 °F 96% - - WNW 33.4 mph 46.0 mph N/A   Unknown
4:40 AM 28.4 °F 11.4 °F 21.4 °F 75% - - WNW 36.8 mph 46.0 mph N/A   Unknown
5:00 AM 27.7 °F 10.6 °F 23.7 °F 85% 29.62 in - West 35.7 mph 42.6 mph N/A   Unknown
5:20 AM 27.0 °F 9.6 °F 24.1 °F 89% - - West 35.7 mph 44.9 mph N/A   Unknown
5:40 AM 27.5 °F 10.8 °F 24.1 °F 87% - - West 33.4 mph 42.6 mph N/A   Unknown
6:00 AM 27.3 °F 9.9 °F 21.2 °F 78% 29.66 in - West 36.8 mph 44.9 mph N/A   Unknown
6:20 AM 27.1 °F 9.8 °F 21.0 °F 78% - - West 35.7 mph 42.6 mph N/A   Unknown
6:40 AM 26.6 °F 8.9 °F 20.8 °F 79% - - West 36.8 mph 42.6 mph N/A   Unknown
7:00 AM 26.4 °F 9.1 °F 19.2 °F 74% 29.71 in - West 34.5 mph 42.6 mph N/A   Unknown
7:20 AM 26.2 °F 8.8 °F 21.9 °F 84% - - West 34.5 mph 43.7 mph N/A   Unknown
7:40 AM 26.4 °F 9.3 °F 21.0 °F 80% - - West 33.4 mph 40.3 mph N/A   Unknown
8:00 AM -30 °F - -37 °F 53% 29.83 in 5 mi North 11.5 mph - -   Light Haze
8:00 AM 25.5 °F 7.8 °F 19.6 °F 78% 29.75 in - West 34.5 mph 44.9 mph N/A   Unknown
8:20 AM 25.9 °F 8.8 °F 19.4 °F 76% - - West 32.2 mph 40.3 mph N/A   Unknown
8:40 AM 26.2 °F 9.8 °F 17.8 °F 70% - - West 29.9 mph 38.0 mph N/A   Unknown
9:00 AM 25.9 °F 9.1 °F 20.1 °F 79% 29.78 in - West 31.1 mph 36.8 mph N/A   Unknown
9:20 AM 26.2 °F 9.8 °F 22.1 °F 84% - - West 29.9 mph 35.7 mph N/A   Unknown
9:40 AM 26.6 °F 10.0 °F 19.4 °F 74% - - West 31.1 mph 40.3 mph N/A   Unknown
10:00 AM 26.2 °F 9.8 °F 19.9 °F 77% 29.81 in - West 29.9 mph 35.7 mph N/A   Unknown
10:20 AM 26.1 °F 9.3 °F 20.7 °F 80% - - West 31.1 mph 38.0 mph N/A   Unknown
10:40 AM 26.1 °F 9.6 °F 21.2 °F 82% - - West 29.9 mph 35.7 mph N/A   Unknown
11:00 AM 26.2 °F 10.3 °F 20.7 °F 79% 29.83 in - West 27.6 mph 36.8 mph N/A   Unknown
11:20 AM 27.5 °F 11.8 °F 22.1 °F 80% - - West 28.8 mph 34.5 mph N/A   Unknown
11:40 AM 26.1 °F 10.4 °F 20.1 °F 78% - - West 26.5 mph 33.4 mph N/A   Unknown
12:00 PM 25.3 °F 10.0 °F 22.5 °F 89% 29.84 in - WSW 24.2 mph 31.1 mph N/A   Unknown
12:20 PM 25.0 °F 9.2 °F 22.6 °F 91% - - WSW 25.3 mph 32.2 mph N/A   Unknown
12:40 PM 24.8 °F 8.7 °F 22.6 °F 91% - - WSW 26.5 mph - N/A   Unknown
1:00 PM 23.4 °F 6.8 °F 21.9 °F 94% 29.86 in - WSW 26.5 mph 32.2 mph N/A   Unknown
1:20 PM 23.7 °F 7.2 °F 21.7 °F 92% - - WSW 26.5 mph - N/A   Unknown
1:40 PM 24.3 °F 8.9 °F 21.6 °F 89% - - WSW 23.0 mph 28.8 mph N/A   Unknown
2:00 PM -33 °F - -39 °F 54% 29.82 in 5 mi North 11.5 mph - -   Light Haze
2:00 PM 24.3 °F 9.6 °F 21.4 °F 89% 29.86 in - WSW 20.7 mph - N/A   Unknown
2:20 PM 24.3 °F 8.6 °F 21.2 °F 88% - - WSW 24.2 mph - N/A   Unknown
2:40 PM 24.3 °F 8.3 °F 20.8 °F 87% - - WSW 25.3 mph - N/A   Unknown
3:00 PM 24.1 °F 8.7 °F 20.5 °F 86% 29.87 in - WSW 23.0 mph - N/A   Unknown
3:20 PM 24.1 °F 8.3 °F 20.1 °F 85% - - WSW 24.2 mph 29.9 mph N/A   Unknown
3:40 PM 24.1 °F 8.3 °F 19.6 °F 83% - - WSW 24.2 mph 29.9 mph N/A   Unknown
4:00 PM 24.4 °F 9.2 °F 18.9 °F 79% 29.89 in - WSW 23.0 mph - N/A   Unknown
4:20 PM 24.4 °F 8.8 °F 18.0 °F 76% - - WSW 24.2 mph 32.2 mph N/A   Unknown
4:40 PM 24.6 °F 8.8 °F 18.3 °F 77% - - WSW 25.3 mph 31.1 mph N/A   Unknown
5:00 PM 25.0 °F 9.2 °F 18.0 °F 75% 29.89 in - WSW 25.3 mph 32.2 mph N/A   Unknown
5:20 PM 25.2 °F 9.8 °F 18.1 °F 75% - - WSW 24.2 mph - N/A   Unknown
5:40 PM 25.0 °F 9.9 °F 17.4 °F 73% - - WSW 23.0 mph 28.8 mph N/A   Unknown
6:00 PM 25.0 °F 10.9 °F 17.6 °F 74% 29.87 in - WSW 19.6 mph - N/A   Unknown
6:20 PM 25.2 °F 10.1 °F 18.0 °F 74% - - SW 23.0 mph 29.9 mph N/A   Unknown
6:40 PM 25.2 °F 10.4 °F 17.8 °F 74% - - WSW 21.9 mph 31.1 mph N/A   Unknown
7:00 PM 24.8 °F 9.6 °F 18.1 °F 76% 29.88 in - SW 23.0 mph - N/A   Unknown
7:20 PM 25.2 °F 9.8 °F 18.9 °F 77% - - SW 24.2 mph 31.1 mph N/A   Unknown
7:40 PM 25.2 °F 9.8 °F 18.7 °F 76% - - WSW 24.2 mph - N/A   Unknown
8:00 PM -33 °F - -40 °F 53% 29.84 in 3 mi North 11.5 mph - -   Light Haze
8:00 PM 25.9 °F 10.7 °F 19.6 °F 77% 29.88 in - WSW 24.2 mph 31.1 mph N/A   Unknown
8:20 PM 26.2 °F 11.2 °F 22.1 °F 84% - - WSW 24.2 mph 31.1 mph N/A   Unknown
8:40 PM 26.1 °F 10.4 °F 19.8 °F 77% - - WSW 26.5 mph 34.5 mph N/A   Unknown
9:00 PM 26.1 °F 10.1 °F 19.9 °F 78% 29.88 in - West 27.6 mph - N/A   Unknown
9:20 PM 26.1 °F 10.4 °F 21.0 °F 81% - - WSW 26.5 mph 34.5 mph N/A   Unknown
9:40 PM 27.5 °F 12.9 °F 21.6 °F 78% - - WSW 24.2 mph - N/A   Unknown
10:00 PM 26.1 °F 10.7 °F 21.0 °F 81% 29.89 in - WSW 25.3 mph - N/A   Unknown
10:20 PM 26.2 °F 11.5 °F 21.6 °F 82% - - WSW 23.0 mph 34.5 mph N/A   Unknown
10:40 PM 26.6 °F 12.0 °F 22.5 °F 84% - - WSW 23.0 mph 29.9 mph N/A   Unknown
11:00 PM 26.8 °F 11.9 °F 23.0 °F 86% 29.90 in - WSW 24.2 mph 31.1 mph N/A   Unknown
11:20 PM 27.3 °F 13.0 °F 25.7 °F 94% - - WSW 23.0 mph - N/A   Unknown
11:40 PM 27.0 °F 12.2 °F 24.1 °F 89% - - WSW 24.2 mph 29.9 mph N/A   Unknown